This is the latest recevied weather packets stored in our database for station/object WA2TQI. If no packets are shown the sender has not sent any weather packets the latest 10 day(s).
| Time | Temp. | Humidity | Pressure | Rain* | Wind** | Luminosity | Snow |
|---|---|---|---|---|---|---|---|
| 1777915349 | 21.11° C | 43% | 1013.5 hPa | 0 mm | - | - | - |
| 1777915045 | 21.67° C | 42% | 1013.7 hPa | 0 mm | - | - | - |
| 1777914743 | 21.67° C | 43% | 1013.7 hPa | 0 mm | - | - | - |
| 1777914439 | 21.67° C | 44% | 1013.7 hPa | 0 mm | - | - | - |
| 1777914137 | 21.11° C | 43% | 1013.8 hPa | 0 mm | - | - | - |
| 1777913833 | 21.67° C | 42% | 1013.9 hPa | 0 mm | - | - | - |
| 1777913529 | 20.56° C | 44% | 1014 hPa | 0 mm | - | - | - |
| 1777913226 | 21.67° C | 43% | 1014.2 hPa | 0 mm | - | - | - |
| 1777912923 | 21.11° C | 44% | 1014 hPa | 0 mm | - | - | - |
| 1777912619 | 21.67° C | 44% | 1014.1 hPa | 0 mm | - | - | - |
| 1777912315 | 21.67° C | 41% | 1014 hPa | 0 mm | - | - | - |
| 1777912011 | 21.67° C | 43% | 1014.3 hPa | 0 mm | - | - | - |
| 1777911707 | 21.11° C | 44% | 1014.2 hPa | 0 mm | - | - | - |
| 1777911403 | 21.11° C | 45% | 1014.4 hPa | 0 mm | - | - | - |
| 1777911102 | 21.11° C | 44% | 1014.7 hPa | 0 mm | - | - | - |
| 1777910799 | 20.56° C | 46% | 1014.6 hPa | 0 mm | - | - | - |
| 1777910495 | 21.11° C | 45% | 1014.8 hPa | 0 mm | - | - | - |
| 1777910192 | 21.11° C | 45% | 1014.6 hPa | 0 mm | - | - | - |
| 1777909889 | 20.56° C | 46% | 1014.6 hPa | 0 mm | - | - | - |
| 1777909586 | 20.56° C | 46% | 1014.9 hPa | 0 mm | - | - | - |
| 1777909283 | 20.56° C | 47% | 1014.8 hPa | 0 mm | - | - | - |
| 1777908981 | 20.56° C | 46% | 1015 hPa | 0 mm | - | - | - |
| 1777908679 | 21.11° C | 47% | 1014.9 hPa | 0 mm | - | - | - |
| 1777908376 | 20.56° C | 49% | 1015 hPa | 0 mm | - | - | - |
| 1777908072 | 20° C | 49% | 1015 hPa | 0 mm | - | - | - |
* Rain latest hour (hover to see other rain measurements)
** Current wind speed in m/s (hover to see current wind gust speed)